Regional Weather Roundup
Issued by NWS Sterling, VA

Home | Current Version | Previous Version | Graphics & Text | Print | Product List | Glossary On
Versions: 1 2 3 4 5 6 7 8 9 10 11 12 13 14 15 16 17 18 19 20 21 22 23 24 25 26 27 28
000
ASUS41 KLWX 191010
RWRLWX

REGIONAL WEATHER ROUNDUP
NATIONAL WEATHER SERVICE BALTIMORE MD/WASHINGTON DC
600 AM EDT SAT APR 19 2014

Note: "FAIR" indicates few or no clouds below 12,000 feet
with no significant weather and/or obstructions to visibility.
 TC=TEMPERATURE CELSIUS

 * =Non NWS site. Station does not report precipitation (e.g. rain,
    snow, etc.), thunder, or fog.

DCZ001-MDZ009-015-VAZ040>042-051-053>054-191100-
WASHINGTON METRO

CITY           SKY/WX    TMP DP  RH WIND       PRES   REMARKS
WASHINGTON NAT CLOUDY    47  39  74 E5        30.26R
DULLES         CLOUDY    39  36  89 CALM      30.25R
ANDREWS AFB    CLOUDY    40  37  90 NE1       30.25R
FT BELVOIR     CLOUDY    41  40  95 NW1       30.26R
QUANTICO       CLOUDY    44  39  82 NW5       30.27R
COLLEGE PARK*  CLOUDY    41  37  87 CALM      30.26R
LEESBURG*      CLOUDY    43  39  87 CALM      30.26R
MANASSAS*      CLOUDY    41  41 100 CALM      30.25R
GAITHERSBURG*  MOCLDY    41  36  81 SE5       30.27R

$$

MDZ006>007-011-014-191100-
BALTIMORE METRO

CITY           SKY/WX    TMP DP  RH WIND       PRES   REMARKS
BWI AIRPORT    CLOUDY    40  36  86 CALM      30.25R
MD SCIENCE CTR   N/A     47  36  65 MISG      30.25R
MARTIN STATE   CLOUDY    43  39  87 CALM      30.27R
ANNAPOLIS      CLOUDY    44  40  85 CALM      30.26R
FORT MEADE*    CLOUDY    36  34  93 CALM      30.28R

$$

MDZ012-015-019>023-191100-
MARYLAND EASTERN SHORE

CITY           SKY/WX    TMP DP  RH WIND       PRES   REMARKS
OCEAN CITY     CLOUDY    43  40  89 CALM      30.26R
SALISBURY      MOCLDY    44  39  82 CALM      30.25R
BAY BRIDGE AP* CLOUDY    45  43  93 CALM      30.27R
CAMBRIDGE*     MOCLDY    43  39  87 CALM      30.25S
EASTON*        MOCLDY    43  43 100 CALM      30.29S

$$

MDZ017>025-191100-
SOUTHERN MARYLAND

CITY           SKY/WX    TMP DP  RH WIND       PRES   REMARKS
PATUXENT RIVER CLOUDY    44  41  89 CALM      30.25R
ST INIGOES     CLOUDY    45  42  89 CALM      30.25R
LEONARDTOWN*   NOT AVBL

$$

MDZ003>005-191100-
NORTH CENTRAL MARYLAND

CITY           SKY/WX    TMP DP  RH WIND       PRES   REMARKS
FREDERICK*     MOCLDY    37  37 100 CALM      30.28R
HAGERSTOWN APT MOCLDY    42  34  73 N5        30.24R
WESTMINSTER*   MOCLDY    39  34  81 N3        30.24R

$$

MDZ501>502-191100-
WESTERN MARYLAND

CITY           SKY/WX    TMP DP  RH WIND       PRES   REMARKS
OAKLAND*       MOCLDY    45  30  57 NE3       30.24R
CUMBERLAND*    MOCLDY    43  36  75 CALM      30.30R

$$

VAZ025>031-191100-
SHENANDOAH VALLEY

CITY           SKY/WX    TMP DP  RH WIND       PRES   REMARKS
WINCHESTER*    CLOUDY    41  36  81 CALM      30.24R
STAUNTON*      CLOUDY    39  37  90 CALM      30.24R

$$

WVZ021-048>050-054>055-191100-
EASTERN WEST VIRGINIA PANHANDLE

CITY           SKY/WX    TMP DP  RH WIND       PRES   REMARKS
MARTINSBURG    CLOUDY    40  34  79 CALM      30.24R
PETERSBURG*    CLOUDY    43  41  92 CALM      30.26R

$$

VAZ036>039-050-191100-
CENTRAL FOOTHILLS

CITY           SKY/WX    TMP DP  RH WIND       PRES   REMARKS
CHARLOTTESVILL CLOUDY    44  38  79 N3        30.23R
CULPEPER*      CLOUDY    41  41 100 CALM      30.26R

$$

VAZ055>057-191100-
NORTH AND CENTRAL PIEDMONT

CITY           SKY/WX    TMP DP  RH WIND       PRES   REMARKS
FREDERICKSBRG* CLOUDY    43  43 100 CALM      30.24R
STAFFORD*      CLOUDY    39  39 100 CALM      30.29R

$$

NCZ024-NYZ072-PAZ021-071-VAZ022-071-191100-
OTHER REGIONAL OBSERVATIONS

CITY           SKY/WX    TMP DP  RH WIND       PRES   REMARKS
NEW YORK CITY  MOCLDY    44  34  67 W3        30.25S
PHILADELPHIA   MOCLDY    43  37  79 SW3       30.26R
PITTSBURGH     CLOUDY    46  39  76 N7        30.28R
ROANOKE        CLOUDY    46  40  79 CALM      30.23R
RICHMOND       CLOUDY    46  42  86 CALM      30.24R
RALEIGH        LGT RAIN  47  44  90 NE7       30.15F

$$

ANZ530>537-191100-
MARINE OBSERVATIONS

STATION/POSITION TIME  TEMP    WIND        PRES
                       AIR SEA DIR/SP/G
                 (UTC) (F)     (DEG/KT/KT) (MB)
THOMAS PT LIGHT  1000   48 52  320/  2/  2 1025.2R
BALT KEY BRIDGE  1000   47      30/  3/  4 1024.4R
COVE POINT       1000   46        CALM     1023.9S
LEWISETTA        1000   47 53   60/  1/  2 1023.9R
SOLOMONS ISLAND  1000      51                N/A
PINEY POINT      1000          140/  2/  3   N/A

$$




USA.gov is the U.S. government's official web portal to all federal, state and local government web resources and services.